This is the latest recevied weather packets stored in our database for station/object KE4EST. If no packets are shown the sender has not sent any weather packets the latest 10 day(s).
| Time | Temp. | Humidity | Pressure | Rain* | Wind** | Luminosity | Snow |
|---|---|---|---|---|---|---|---|
| 1777777225 | 7.78° C | 81% | 1017.2 hPa | 0 mm | - | 0 W/m² | - |
| 1777776922 | 7.78° C | 81% | 1016.8 hPa | 0 mm | - | 0 W/m² | - |
| 1777776620 | 7.78° C | 79% | 1016.7 hPa | 0 mm | - | 0 W/m² | - |
| 1777776315 | 7.78° C | 80% | 1016.8 hPa | 0 mm | - | 0 W/m² | - |
| 1777776013 | 7.78° C | 81% | 1016.9 hPa | 0 mm | - | 0 W/m² | - |
| 1777775710 | 7.78° C | 81% | 1016.8 hPa | 0 mm | - | 0 W/m² | - |
| 1777775407 | 7.78° C | 80% | 1016.6 hPa | 0 mm | - | 0 W/m² | - |
| 1777775103 | 7.22° C | 79% | 1016.5 hPa | 0 mm | - | 0 W/m² | - |
| 1777774797 | 7.22° C | 79% | 1016.4 hPa | 0 mm | - | 0 W/m² | - |
| 1777774494 | 7.22° C | 79% | 1016.3 hPa | 0 mm | - | 0 W/m² | - |
| 1777774192 | 7.78° C | 77% | 1016.6 hPa | 0 mm | - | 0 W/m² | - |
| 1777773889 | 7.78° C | 77% | 1016.4 hPa | 0 mm | - | 0 W/m² | - |
| 1777773585 | 7.78° C | 78% | 1016.2 hPa | 0 mm | - | 0 W/m² | - |
| 1777773283 | 7.78° C | 76% | 1016.2 hPa | 0 mm | - | 0 W/m² | - |
| 1777772979 | 7.78° C | 76% | 1016.3 hPa | 0 mm | - | 0 W/m² | - |
| 1777772676 | 8.33° C | 76% | 1016.2 hPa | 0 mm | - | 0 W/m² | - |
| 1777772374 | 8.33° C | 75% | 1016.1 hPa | 0 mm | - | 0 W/m² | - |
| 1777772070 | 8.33° C | 72% | 1016.2 hPa | 0 mm | - | 0 W/m² | - |
| 1777771768 | 8.89° C | 72% | 1016 hPa | 0 mm | - | 0 W/m² | - |
| 1777771466 | 8.89° C | 71% | 1016.2 hPa | 0 mm | - | 0 W/m² | - |
| 1777771161 | 9.44° C | 70% | 1015.7 hPa | 0 mm | - | 0 W/m² | - |
| 1777770858 | 9.44° C | 67% | 1015.7 hPa | 0 mm | - | 0 W/m² | - |
| 1777770555 | 10° C | 64% | 1015.6 hPa | 0 mm | - | 0 W/m² | - |
| 1777770252 | 10.56° C | 65% | 1015.8 hPa | 0 mm | - | 0 W/m² | - |
| 1777769949 | 10.56° C | 61% | 1015.5 hPa | 0 mm | - | 0 W/m² | - |
* Rain latest hour (hover to see other rain measurements)
** Current wind speed in m/s (hover to see current wind gust speed)